Gwinn, MI

6:25 AM EST on February 18, 2018 (GMT -0500)
Sawyer International

Weather History for KSAW - November, 2012

Change the Weather History Date:

Tuesday, November 13, 2012

  Actual Average (KESC) Record (KESC)
Temperature  
Mean Temperature 27 °F -  
Max Temperature 34 °F 39 °F 59 °F (1999)
Min Temperature 21 °F 26 °F 4 °F (1986)
Degree Days  
Heating Degree Days 38    
Moisture  
Dew Point 19 °F    
Average Humidity 75    
Maximum Humidity 86    
Minimum Humidity 52    
Precipitation  
Precipitation 0.00 in - - ()
Sea Level Pressure  
Sea Level Pressure 30.23 in    
Wind  
Wind Speed 10 mph (SW)    
Max Wind Speed 13 mph    
Max Gust Speed 18 mph    
Visibility 10 miles    
Events Snow    
Averages and records for this station are not official NWS values.
T = Trace of Precipitation, MM = Missing Value Source: NWS Daily Summary

Daily Weather History Graph

Daily Weather History Graph

Search for Another Location

Airport or City:

Trip Planner

Search our weather history database for the weather conditions in past years. The results will help you decide how hot, cold, wet, or windy it might be!

Date:

Astronomy

Nov. 13, 2012 Rise Set
Actual Time 7:48 AM EST 5:18 PM EST
Civil Twilight 7:16 AM EST 5:51 PM EST
Nautical Twilight 6:39 AM EST 6:27 PM EST
Astronomical Twilight 6:04 AM EST 7:02 PM EST
Moon 7:27 AM EST (11/13) 5:09 PM EST (11/13)
Length of Visible Light 10h 34m
Length of Day
9h 29m
Waning Crescent, 0% of the Moon is Illuminated
Nov 13
Waning Crescent
Nov 13
New
Nov 20
First Quarter
Nov 28
Full
Dec 6
Last Quarter

Hourly Weather History & Observations

Time (EST) Temp. Windchill Dew Point Humidity Pressure Visibility Wind Dir Wind Speed Gust Speed Precip Events Conditions
12:16 AM 22.8 °F 11.5 °F 17.1 °F 79% 30.05 in 7.0 mi WSW 11.5 mph - N/A Snow Light Snow
12:36 AM 23.0 °F 11.7 °F 17.1 °F 78% 30.06 in 10.0 mi WSW 11.5 mph 17.3 mph N/A Snow Light Snow
12:55 AM 23.4 °F 12.2 °F 17.6 °F 79% 30.07 in 7.0 mi WSW 11.5 mph - N/A Snow Light Snow
1:16 AM 23.4 °F 12.8 °F 18.1 °F 80% 30.08 in 10.0 mi WSW 10.4 mph - N/A Snow Light Snow
1:36 AM 23.7 °F 14.7 °F 17.8 °F 78% 30.09 in 10.0 mi WSW 8.1 mph - N/A   Overcast
1:55 AM 23.7 °F 12.6 °F 18.3 °F 80% 30.09 in 10.0 mi WSW 11.5 mph - N/A Snow Light Snow
2:16 AM 23.9 °F 13.5 °F 18.5 °F 80% 30.10 in 10.0 mi WSW 10.4 mph - N/A   Overcast
2:36 AM 23.4 °F 13.5 °F 18.5 °F 82% 30.11 in 10.0 mi WSW 9.2 mph - N/A   Mostly Cloudy
2:55 AM 23.9 °F 12.9 °F 19.2 °F 82% 30.12 in 7.0 mi WSW 11.5 mph - N/A Snow Light Snow
3:16 AM 24.3 °F 13.3 °F 19.2 °F 81% 30.13 in 10.0 mi WSW 11.5 mph 16.1 mph N/A   Overcast
3:36 AM 24.8 °F 15.3 °F 19.4 °F 80% 30.14 in 10.0 mi WSW 9.2 mph - N/A   Mostly Cloudy
3:56 AM 23.7 °F 14.0 °F 18.7 °F 81% 30.14 in 10.0 mi WSW 9.2 mph - N/A   Mostly Cloudy
4:16 AM 23.9 °F 12.9 °F 19.0 °F 82% 30.15 in 10.0 mi WSW 11.5 mph - N/A   Mostly Cloudy
4:35 AM 23.9 °F 12.9 °F 19.0 °F 82% 30.15 in 10.0 mi WSW 11.5 mph - N/A   Mostly Cloudy
4:56 AM 23.5 °F 11.8 °F 19.0 °F 83% 30.16 in 10.0 mi West 12.7 mph - N/A   Clear
5:16 AM 23.5 °F 13.7 °F 18.9 °F 82% 30.17 in 10.0 mi West 9.2 mph 18.4 mph N/A   Clear
5:35 AM 23.7 °F 12.6 °F 19.2 °F 83% 30.18 in 5.0 mi West 11.5 mph - N/A Snow Light Snow
5:56 AM 23.5 °F 13.0 °F 19.2 °F 84% 30.20 in 10.0 mi West 10.4 mph - N/A Snow Light Snow
6:50 AM 23.0 °F 13.1 °F 19.4 °F 86% 30.23 in 10.0 mi West 9.2 mph - N/A   Clear
7:50 AM 21.2 °F 10.9 °F 17.6 °F 86% 30.26 in 10.0 mi WSW 9.2 mph - N/A   Clear
8:55 AM 23.0 °F 13.9 °F 19.4 °F 86% 30.29 in 10.0 mi WSW 8.1 mph - N/A   Clear
9:55 AM 26.6 °F 17.5 °F 19.4 °F 74% 30.29 in 10.0 mi WNW 9.2 mph - N/A   Mostly Cloudy
10:50 AM 26.6 °F 20.0 °F 19.4 °F 74% 30.32 in 10.0 mi WNW 5.8 mph - N/A   Overcast
11:55 AM 28.4 °F 23.3 °F 19.4 °F 69% 30.32 in 10.0 mi WNW 4.6 mph - N/A   Scattered Clouds
12:50 PM 30.2 °F 26.7 °F 19.4 °F 64% 30.30 in 10.0 mi West 3.5 mph - N/A   Clear
1:55 PM 33.8 °F 27.7 °F 19.4 °F 56% 30.29 in 10.0 mi South 6.9 mph - N/A   Clear
2:50 PM 33.8 °F 26.4 °F 17.6 °F 52% 30.29 in 10.0 mi South 9.2 mph - N/A   Clear
3:50 PM 33.8 °F 27.0 °F 19.4 °F 56% 30.30 in 10.0 mi SW 8.1 mph - N/A   Clear
4:50 PM 33.8 °F 27.0 °F 19.4 °F 56% 30.31 in 10.0 mi SSW 8.1 mph - N/A   Clear
5:50 PM 30.2 °F 24.3 °F 19.4 °F 64% 30.32 in 10.0 mi South 5.8 mph - N/A   Clear
6:50 PM 28.4 °F 21.2 °F 19.4 °F 69% 30.33 in 10.0 mi South 6.9 mph - N/A   Clear
7:50 PM 28.4 °F 19.7 °F 17.6 °F 64% 30.33 in 10.0 mi South 9.2 mph - N/A   Clear
8:50 PM 28.4 °F 19.7 °F 19.4 °F 69% 30.34 in 10.0 mi South 9.2 mph - N/A   Clear
9:45 PM 26.6 °F 18.2 °F 19.4 °F 74% 30.34 in 10.0 mi SSW 8.1 mph - N/A   Clear
10:16 PM 26.6 °F 19.1 °F 19.4 °F 74% 30.34 in 10.0 mi SSW 6.9 mph - N/A   Clear
10:36 PM 26.4 °F 18.9 °F 19.4 °F 75% 30.34 in 10.0 mi SSW 6.9 mph - N/A   Clear
10:56 PM 26.4 °F 18.9 °F 19.4 °F 75% 30.35 in 10.0 mi SSW 6.9 mph - N/A   Clear
11:16 PM 26.2 °F 19.6 °F 19.6 °F 76% 30.35 in 10.0 mi South 5.8 mph - N/A   Clear
11:36 PM 26.2 °F 18.6 °F 19.4 °F 75% 30.36 in 10.0 mi SSW 6.9 mph - N/A   Clear
11:56 PM 26.1 °F 17.6 °F 19.4 °F 76% 30.36 in 10.0 mi SSW 8.1 mph - N/A   Clear